Theta_e
284 284 284 283 283 283 283 283 284 284 285 285 286 286 286 286 287 287 287 288 288 288 289 288 287 287 287 287 288 287 287 286 283 284 286 287 287 288 289 291 291 292 293
283 282 282 282 282 281 281 281 282 283 284 284 285 284 284 285 285 285 286 286 286 286 286 286 284 285 283 284 285 284 284 284 282 280 282 283 284 285 286 285 288 290 290
282 281 280 280 280 280 280 280 281 281 282 283 283 283 283 284 283 284 285 285 284 284 284 282 282 282 282 282 282 281 282 282 282 280 279 282 282 283 282 283 284 285 287
280 280 279 279 279 279 280 280 280 281 281 281 282 283 283 283 282 283 283 283 283 283 283 283 281 281 279 279 280 280 280 280 280 279 279 279 280 281 280 278 278 281 281
279 278 278 278 278 278 279 279 279 279 280 280 280 281 282 282 282 280 281 281 280 280 280 280 280 279 280 280 280 279 278 278 277 277 277 276 275 275 275 277 277 278 280
278 277 277 278 278 278 278 278 278 278 279 279 278 278 279 281 282 282 280 278 278 278 277 278 278 277 278 280 280 280 279 277 276 275 274 273 274 275 276 276 276 276 274
277 277 277 277 277 277 277 277 277 276 277 277 277 277 277 279 282 280 280 278 277 276 276 276 277 276 277 278 278 278 277 278 278 276 273 273 273 275 275 274 274 273 273
276 277 277 277 276 276 277 276 276 276 276 276 276 277 276 279 281 279 279 277 276 276 275 275 275 274 277 277 275 274 274 275 275 274 274 274 274 275 275 274 273 272 272
276 276 276 276 275 275 275 275 276 276 276 276 276 275 275 276 280 279 276 275 275 274 275 275 274 274 277 278 274 271 272 273 274 274 274 275 275 275 275 271 267 267 266
276 276 276 276 275 275 275 275 275 276 276 276 275 275 274 274 278 279 276 275 273 272 273 273 274 275 276 276 271 270 270 270 269 268 268 269 271 271 272 271 269 265 265
276 275 275 275 274 274 274 274 274 274 274 273 273 273 273 273 275 277 277 274 273 271 271 271 271 274 275 274 273 271 270 269 266 264 264 265 266 267 267 268 268 267 265
273 273 273 273 274 273 273 273 273 273 272 271 270 270 271 272 274 275 275 275 274 269 270 270 270 273 272 271 270 271 270 267 263 261 261 261 262 263 264 265 267 267 267
271 271 271 272 272 272 271 271 271 271 270 270 269 267 268 270 270 273 273 273 273 270 271 270 269 269 269 267 268 268 265 262 261 259 259 260 262 263 263 263 264 264 264
270 269 270 270 269 271 271 271 270 268 268 268 267 265 266 267 268 270 271 270 271 269 266 263 265 266 265 264 263 262 262 261 260 259 259 260 261 260 259 261 259 260 259
269 268 269 269 269 269 269 269 269 269 268 265 264 265 262 263 267 272 271 270 268 269 257 256 257 259 259 259 259 259 259 259 258 258 257 257 257 258 258 259 259 258 257
268 268 268 268 268 267 267 268 271 271 272 271 271 268 268 269 270 271 271 271 269 268 251 249 253 256 256 256 256 256 257 256 257 256 256 256 255 255 256 256 257 256 255
267 267 267 267 266 266 266 265 264 267 269 269 269 268 268 268 269 270 269 268 265 260 247 247 250 253 253 255 255 255 254 255 256 255 255 254 254 254 254 254 255 255 254
266 265 265 265 265 264 264 264 263 261 260 261 264 265 266 266 267 268 267 259 248 250 245 245 246 247 250 251 252 253 253 253 253 253 253 252 252 252 252 252 253 253 253
263 263 263 263 263 263 262 262 261 260 260 258 258 260 259 263 265 265 262 248 246 245 245 244 245 246 247 248 249 249 249 250 250 250 250 250 251 251 251 252 252 252 253
262 262 262 261 260 260 261 260 260 259 258 257 256 255 252 252 251 248 246 245 244 244 246 245 245 243 244 245 246 245 245 244 246 245 247 249 250 250 251 251 251 251 252
260 260 260 260 259 259 259 258 258 257 256 254 252 253 261 253 249 246 246 245 245 245 245 244 245 245 245 245 244 244 244 247 248 247 247 249 249 249 250 251 251 251 252
259 258 258 258 258 257 257 256 255 254 253 252 251 250 261 249 247 246 246 246 246 245 245 245 246 246 246 246 246 245 245 247 248 248 247 248 249 249 250 250 250 251 252
259 257 257 256 256 256 255 253 251 251 250 249 248 248 246 246 246 246 245 246 245 246 245 243 245 247 247 246 247 248 248 248 249 248 248 248 249 249 249 250 250 251 253
256 255 254 253 252 250 249 248 248 249 248 247 246 247 247 246 245 246 246 246 246 246 245 246 247 247 248 247 246 247 248 249 249 249 247 249 250 250 250 250 251 253 256
249 249 249 250 250 250 248 247 247 245 245 245 245 244 245 245 245 245 246 246 246 247 248 248 246 247 247 246 247 247 249 251 250 250 250 249 249 249 249 251 254 257 257
249 248 247 245 243 242 243 244 245 244 245 246 246 246 245 245 246 247 248 246 246 247 247 248 248 247 247 247 247 249 250 253 254 254 253 253 254 255 256 256 256 256 257
Wind_Speed
5 5 6 6 6 6 5 5 5 5 5 6 7 9 9 9 9 7 8 8 8 7 8 10 9 8 6 6 5 4 4 3 3 5 6 10 12 12 13 11 12 13 11
6 5 5 6 6 6 5 5 5 5 6 6 8 9 9 8 7 8 8 7 8 9 8 9 8 7 8 7 5 7 5 5 5 9 8 7 10 13 13 16 12 10 12
6 6 6 5 5 5 5 5 5 5 6 6 8 8 8 8 7 7 7 7 8 8 9 9 9 7 7 6 6 6 5 6 5 5 7 7 8 9 12 12 13 13 11
6 6 6 5 5 5 5 5 5 5 6 6 7 8 8 8 8 7 8 8 8 9 8 8 8 9 9 8 7 7 7 6 6 6 7 7 7 10 8 13 14 11 14
7 7 6 6 6 5 5 5 5 5 6 6 6 7 8 8 7 6 6 7 7 7 7 7 8 10 14 12 6 8 8 7 7 7 8 9 9 12 13 11 13 15 13
8 7 7 6 6 6 5 5 6 5 5 5 7 6 6 6 13 13 8 6 7 7 6 6 5 9 10 14 15 14 11 9 10 7 7 9 11 11 11 12 13 15 12
8 7 7 7 6 6 5 5 6 6 5 6 6 6 6 5 13 12 11 7 7 6 7 7 6 7 8 9 12 12 11 12 11 8 10 10 12 13 13 14 14 14 13
8 8 8 8 8 7 7 7 6 4 6 5 6 6 5 6 13 12 11 5 6 7 7 7 8 9 10 10 9 9 9 8 10 9 10 10 10 11 11 12 13 15 14
9 9 8 7 8 7 8 6 5 5 5 6 7 6 6 4 12 14 9 5 7 7 6 7 8 9 14 15 9 8 8 8 12 17 18 17 17 18 16 9 9 11 14
9 9 8 7 7 8 8 7 4 4 6 5 7 6 6 4 11 12 9 4 5 5 4 5 9 12 14 15 9 8 8 11 12 10 11 12 12 12 17 10 10 10 11
10 9 7 7 7 6 7 5 4 6 6 4 6 4 5 4 5 11 12 6 5 4 3 4 6 14 14 14 13 9 12 12 10 8 8 7 8 9 8 10 12 10 11
11 10 8 7 6 6 7 6 5 5 7 5 5 3 4 4 6 9 11 9 8 3 4 5 7 13 12 12 11 17 18 12 6 6 6 7 8 9 10 10 12 11 11
11 9 8 7 7 6 7 6 4 5 5 5 4 3 3 3 3 7 8 8 7 5 4 8 9 9 11 9 15 16 10 6 6 5 7 8 9 10 12 11 11 13 13
11 10 9 7 7 6 6 6 5 4 5 4 4 3 3 2 1 2 2 2 4 5 6 5 7 7 9 8 6 9 7 7 7 6 7 8 8 9 9 10 11 12 13
10 9 9 7 8 7 5 5 5 4 5 5 3 4 3 2 2 3 2 1 2 5 4 3 2 3 3 4 4 4 5 6 6 6 7 8 8 8 9 9 10 10 10
9 8 7 6 6 6 6 6 10 8 9 10 10 6 2 1 3 4 4 6 7 8 5 2 2 3 4 4 4 5 5 6 6 7 7 7 8 9 10 10 9 9 11
7 8 7 6 5 6 6 7 8 5 7 8 6 3 3 2 3 4 5 9 8 6 3 1 1 2 3 4 4 5 6 6 7 6 7 8 8 8 11 10 10 10 10
6 8 5 5 5 5 4 4 4 4 4 2 2 0 1 2 4 3 6 7 4 5 1 1 2 2 2 3 4 5 6 6 6 6 7 7 7 8 9 9 9 11 11
6 5 5 4 4 5 4 4 4 4 3 2 1 1 2 4 4 5 6 3 2 1 2 2 3 2 3 3 4 4 5 5 6 7 6 7 7 7 9 9 10 14 14
5 8 6 5 5 5 4 4 4 3 3 3 2 2 2 2 1 1 0 2 2 3 3 4 4 3 4 4 5 4 5 3 4 4 5 6 7 7 9 10 10 11 11
4 5 6 4 4 4 3 4 3 3 3 2 3 3 8 4 3 3 2 3 3 4 4 4 4 3 3 4 4 4 4 6 6 6 6 6 7 8 8 9 10 11 11
4 4 4 4 4 4 3 3 3 3 3 2 2 2 7 2 1 2 3 4 4 4 4 4 4 4 5 5 5 5 5 7 7 6 6 7 8 8 8 9 10 10 11
5 5 4 3 3 4 3 3 3 3 3 3 3 3 2 2 3 4 4 5 4 4 4 3 4 6 5 6 6 6 7 9 8 6 7 8 8 9 8 10 11 11 11
4 4 4 3 3 3 3 3 3 4 4 3 3 3 4 4 4 5 5 4 4 5 4 4 5 8 7 7 5 6 8 9 8 8 9 9 10 11 9 10 11 14 13
3 3 3 4 4 4 3 3 4 4 4 4 4 4 4 4 4 4 4 4 5 5 7 6 5 8 10 12 12 12 14 18 14 13 9 11 13 15 13 11 14 13 15
4 5 4 3 3 3 4 4 4 4 5 4 4 4 5 4 4 4 5 5 5 6 7 6 7 10 12 11 13 15 16 17 15 18 12 11 12 12 11 13 17 12 14
Wind_Direction
99 97 91 80 68 63 64 51 53 50 44 59 65 74 63 53 47 50 55 61 66 64 59 60 56 47 42 36 25 16 3 352 302 298 323 321 318 319 323 325 320 330 320
123 102 90 90 84 76 66 57 50 57 49 56 72 71 67 65 57 60 65 61 62 60 63 63 52 49 43 30 28 15 0 333 320 312 310 332 324 330 332 327 332 325 329
127 121 109 98 95 95 87 72 66 73 69 72 87 81 73 66 63 66 76 75 68 60 57 58 57 41 46 23 24 5 353 334 329 312 313 328 326 331 333 334 332 328 329
133 129 125 121 119 110 103 93 85 82 88 82 95 86 76 67 61 52 65 69 68 62 54 61 56 47 38 17 18 2 356 341 342 335 323 330 333 344 335 336 331 333 326
147 146 145 137 126 117 112 102 88 94 96 91 88 89 81 70 64 56 62 74 72 73 61 53 64 45 29 21 15 6 0 353 351 345 342 339 336 347 349 333 321 321 324
156 153 144 137 130 124 118 118 108 100 94 93 95 81 80 71 67 71 70 71 68 65 63 54 70 47 15 13 17 11 13 360 358 349 330 335 339 341 335 332 328 334 327
151 150 146 138 129 127 125 113 112 107 99 88 94 101 80 78 75 75 74 69 70 63 57 49 49 28 3 5 10 7 8 360 5 352 343 344 333 335 329 332 332 323 304
150 152 150 148 146 141 137 134 127 126 121 116 103 97 78 70 69 67 71 65 70 61 56 45 41 19 4 6 5 3 356 345 360 358 349 337 330 330 336 329 326 308 298
160 161 161 153 149 146 143 141 128 134 120 123 115 109 99 43 67 69 59 48 64 48 50 48 37 15 3 9 19 355 349 355 359 355 345 341 341 341 338 335 330 328 322
158 159 158 156 146 153 150 135 126 145 130 132 126 118 112 67 69 58 77 56 57 36 34 44 25 10 9 11 28 353 353 357 352 349 347 346 341 337 345 344 328 321 322
141 134 140 143 140 151 126 125 145 134 123 115 125 108 113 83 60 58 57 54 51 39 18 17 14 2 8 9 17 358 2 4 351 347 331 326 337 340 336 332 327 319 310
134 141 152 147 149 158 135 135 166 154 132 118 114 105 105 73 75 57 47 45 41 61 27 16 357 358 6 9 9 4 7 4 353 340 332 335 341 338 332 322 318 310 301
137 144 144 145 143 148 148 150 162 141 126 129 143 142 109 84 51 52 41 34 19 43 22 10 356 6 14 17 5 4 8 356 345 340 338 336 333 325 319 318 317 312 304
143 150 146 146 150 165 157 153 152 135 124 150 148 130 107 104 48 296 161 91 34 56 50 24 16 25 22 19 6 359 351 354 344 334 329 324 322 326 326 324 325 325 319
148 151 154 155 159 148 139 141 135 137 156 155 142 142 135 124 248 343 48 114 118 76 82 48 12 21 11 4 356 339 340 338 334 331 325 321 322 323 319 322 319 320 315
148 150 153 154 155 150 149 138 150 148 149 141 133 139 122 97 0 341 9 9 28 42 55 64 10 12 359 341 333 331 330 328 326 321 314 313 320 320 316 319 315 316 314
147 144 144 149 151 156 160 157 150 134 146 135 119 103 113 85 347 336 18 54 29 62 90 29 10 326 314 323 320 321 313 314 313 302 305 310 314 313 317 316 314 314 311
123 138 142 144 150 146 152 151 154 159 149 140 63 207 162 354 332 28 27 58 24 15 85 186 256 255 257 280 291 295 293 295 297 299 299 302 304 306 309 307 309 309 309
136 136 131 135 135 139 148 145 136 136 147 146 112 11 351 326 330 54 44 125 160 294 271 268 240 249 252 252 256 256 262 275 285 287 286 287 292 298 297 299 300 303 304
134 143 139 143 148 148 146 147 152 164 172 178 181 213 283 60 25 304 297 143 185 233 243 244 257 242 250 250 260 258 266 263 268 261 270 276 283 285 289 296 297 300 299
135 133 149 140 151 154 157 166 167 171 190 191 206 214 241 186 196 219 232 219 224 237 243 237 250 254 254 263 259 263 254 269 268 264 263 273 279 282 285 287 288 289 290
137 152 161 159 151 163 168 164 169 186 204 215 235 261 287 115 220 261 254 254 245 234 231 230 254 242 245 247 244 244 250 267 267 259 256 268 273 278 282 283 286 287 289
156 160 165 165 160 165 164 167 186 198 211 225 230 230 225 245 243 245 249 253 254 261 239 216 242 267 249 235 235 235 249 257 258 253 261 270 274 275 274 277 282 284 286
152 160 164 164 157 162 171 195 206 215 216 221 231 246 248 240 234 240 242 252 259 259 243 251 243 248 262 259 243 239 242 251 252 252 240 255 266 274 269 269 271 276 282
137 150 161 175 185 187 189 209 217 222 224 224 234 238 240 247 249 249 250 246 253 260 269 252 233 248 255 258 258 258 259 267 263 258 254 251 253 258 260 262 268 279 284
169 175 183 177 195 197 200 213 224 221 233 230 233 236 236 235 242 250 258 247 249 252 258 262 262 255 260 265 263 264 264 264 261 255 243 242 248 253 257 270 276 277 281